Tracking 27122 objects as of 24-Mar-2023
HD Live streaming from Space Station
objects crossing your sky now

STARLINK-1891

Track STARLINK-1891 now!
10-day predictions
STARLINK-1891 is classified as:


NORAD ID: 47174
Int'l Code: 2020-088BE
Perigee: 553.1 km
Apogee: 555.4 km
Inclination: 53.1 °
Period: 95.6 minutes
Semi major axis: 6925 km
RCS: Unknown
Launch date: November 25, 2020
Source: United States (US)
Launch site: AIR FORCE EASTERN TEST RANGE (AFETR)
Your satellite tracking list
Your tracking list is empty




NASA's NSSDC Master Catalog

Two Line Element Set (TLE):
1 47174U 20088BE  23083.06837713  .00032313  00000-0  21768-2 0  9990
2 47174  53.0512 117.2020 0001663  78.8613 281.2563 15.06424650129106
Source of the keplerian elements: AFSPC